World > North America > United States > New York > West Chazy  

West Chazy, NY Hourly Weather Updates

Feedback E-mail the Weather

Quick Clicks

West Chazy, NY Weather Maps

°F °C°F °C
West Chazy Weather Map
UTC Time: 6/25/2024, 15:17
Your Time:

West Chazy, NY Regional Weather

Expires:202406251600;;908208
ASUS41 KBTV 251510
RWRBTV
VERMONT REGIONAL WEATHER ROUNDUP
NATIONAL WEATHER SERVICE BURLINGTON VT
1100 AM EDT TUE JUN 25 2024

NOTE: "FAIR" INDICATES FEW OR NO CLOUDS BELOW 12,000 FEET WITH NO 
SIGNIFICANT WEATHER AND/OR OBSTRUCTIONS TO VISIBILITY.

* THESE REPORTS ARE NOT UNDER NWS QUALITY CONTROL AND/OR DO NOT
  REPORT WEATHER SUCH AS PRECIPITATION AND FOG.


NYZ007-026>031-035-052-083-087-251600-
_____NORTHERN NEW YORK_
  
CITY           SKY/WX    TMP DP  RH WIND       PRES   REMARKS
PLATTSBURGH    SUNNY     72  62  71 SE8       29.82F TC  22           
SARANAC LAKE   MOSUNNY   75  55  49 SW9       29.90S TC  24           
MASSENA        MOSUNNY   76  61  59 SW15      29.85F TC  24           
OGDENSBURG*    MOSUNNY   77  59  53 SW8G18    29.83F TC  25           
POTSDAM*       MOSUNNY   75  63  64 SW9       29.86F TC  24           
WATERTOWN      MOSUNNY   74  61  63 SW8       29.88F TC  23           
FT DRUM        PTSUNNY   75  59  57 W9        29.87F TC  24           
ALBANY         MOSUNNY   81  59  47 VRB7      29.90S TC  27           
GLENS FALLS    SUNNY     74  64  71 SE5       29.87F TC  23           

$$

SKY/WX - Weather  TMP - Temperature  DP - Dew Point  RH - Humidity
WIND - Wind Direction/Speed PRES - Barometric Pressure VSB - Visibility
WCI - Wind Chill Index E13G22 Wind - East Wind 13 mph/Gusts of 22 mph

Trending Headlines

Trending Entertainment Headlines

West Chazy Radar Loop

Use the map search tool if you want to place a location marker on the radar map...

West Chazy Quick Facts

National Two Day Weather Forecast


E-mail the West Chazy Weather Forecast

Voice your opinion or tell us about page issues...